When you browse on this site, cookies collect data to enhance your experience and personalize the content and advertising you see.
Visit our Privacy Policy to learn more. By continuing to use the site, you agree to this use of cookies and data.
  • en France
  • Liste des pays
  • À 7 jours
  • Température de l'eau
  • Carte satellitaire
  • Carte météo
  • Widgets météo
  • user-avatar
    Se connecter

    Météo par heure à Pazardjik

    Ce jour, 22 Mars, Vendredi

    Heure Température Précipitation Vent Pression Humidité
    00:00 +10°C° 0 mm 1 m/s 754 mmHg 76%
    01:00 +9°C° 0 mm 1 m/s 754 mmHg 78%
    02:00 +9°C° 0 mm 1 m/s 753 mmHg 76%
    03:00 +9°C° 0 mm 1 m/s 753 mmHg 77%
    04:00 +8°C° 0 mm 1 m/s 753 mmHg 79%
    05:00 +8°C° 0 mm 1 m/s 753 mmHg 80%
    06:00 +9°C° 0 mm 1 m/s 753 mmHg 76%
    07:00 +10°C° 0 mm 1 m/s 753 mmHg 73%
    08:00 +10°C° 0 mm 0 m/s 753 mmHg 69%
    09:00 +12°C° 0 mm 1 m/s 753 mmHg 63%
    10:00 +13°C° 0 mm 1 m/s 753 mmHg 57%
    11:00 +15°C° 0 mm 1 m/s 753 mmHg 52%
    12:00 +15°C° 0 mm 1 m/s 752 mmHg 48%
    13:00 +16°C° 0 mm 2 m/s 752 mmHg 45%
    14:00 +17°C° 0 mm 2 m/s 751 mmHg 42%
    15:00 +17°C° 0 mm 2 m/s 751 mmHg 43%
    16:00 +16°C° 0 mm 2 m/s 750 mmHg 43%
    17:00 +16°C° 0 mm 2 m/s 750 mmHg 44%
    18:00 +15°C° 0 mm 1 m/s 750 mmHg 48%
    19:00 +13°C° 0 mm 1 m/s 750 mmHg 52%
    20:00 +12°C° 0 mm 1 m/s 750 mmHg 57%
    21:00 +11°C° 0 mm 1 m/s 750 mmHg 57%
    22:00 +11°C° 0 mm 1 m/s 750 mmHg 58%
    23:00 +10°C° 0 mm 1 m/s 750 mmHg 58%

    Demain, 23 Mars, Samedi

    Heure Température Précipitation Vent Pression Humidité
    00:00 +10°C° 0 mm 1 m/s 750 mmHg 61%
    01:00 +10°C° 0 mm 1 m/s 750 mmHg 63%
    02:00 +9°C° 0 mm 1 m/s 750 mmHg 65%
    03:00 +9°C° 0 mm 1 m/s 750 mmHg 67%
    04:00 +9°C° 0 mm 1 m/s 750 mmHg 69%
    05:00 +9°C° 0 mm 1 m/s 750 mmHg 71%
    06:00 +10°C° 0 mm 1 m/s 750 mmHg 68%
    07:00 +11°C° 0 mm 1 m/s 750 mmHg 64%
    08:00 +12°C° 0 mm 1 m/s 750 mmHg 60%
    09:00 +13°C° 0 mm 1 m/s 750 mmHg 54%
    10:00 +15°C° 0 mm 1 m/s 749 mmHg 48%
    11:00 +18°C° 0 mm 1 m/s 749 mmHg 42%
    12:00 +19°C° 0 mm 1 m/s 749 mmHg 40%
    13:00 +20°C° 0 mm 1 m/s 748 mmHg 38%
    14:00 +20°C° 0 mm 1 m/s 748 mmHg 36%
    15:00 +20°C° 0 mm 1 m/s 748 mmHg 36%
    16:00 +20°C° 0 mm 1 m/s 747 mmHg 36%
    17:00 +19°C° 0 mm 2 m/s 747 mmHg 36%
    18:00 +17°C° 0 mm 2 m/s 747 mmHg 44%
    19:00 +15°C° 0 mm 2 m/s 748 mmHg 52%
    20:00 +13°C° 0 mm 2 m/s 748 mmHg 60%
    21:00 +12°C° 0 mm 2 m/s 748 mmHg 66%
    22:00 +10°C° 0 mm 1 m/s 749 mmHg 72%
    23:00 +9°C° 0 mm 1 m/s 749 mmHg 78%

    Après-demain, 24 Mars, Dimanche

    Heure Température Précipitation Vent Pression Humidité
    00:00 +9°C° 0 mm 1 m/s 749 mmHg 78%
    01:00 +9°C° 0 mm 1 m/s 749 mmHg 78%
    02:00 +8°C° 0 mm 1 m/s 749 mmHg 78%
    03:00 +8°C° 0 mm 1 m/s 749 mmHg 76%
    04:00 +8°C° 0 mm 1 m/s 748 mmHg 75%
    05:00 +8°C° 0 mm 1 m/s 748 mmHg 73%
    06:00 +9°C° 0 mm 1 m/s 748 mmHg 70%
    07:00 +10°C° 0 mm 1 m/s 749 mmHg 66%
    08:00 +11°C° 0 mm 1 m/s 749 mmHg 63%
    09:00 +12°C° 0 mm 1 m/s 749 mmHg 58%
    10:00 +14°C° 0 mm 1 m/s 749 mmHg 53%
    11:00 +15°C° 0 mm 2 m/s 748 mmHg 48%
    12:00 +16°C° 0 mm 2 m/s 748 mmHg 45%
    13:00 +17°C° 0 mm 2 m/s 747 mmHg 42%
    14:00 +18°C° 0 mm 2 m/s 747 mmHg 39%
    15:00 +18°C° 0 mm 2 m/s 746 mmHg 39%
    16:00 +17°C° 0 mm 2 m/s 746 mmHg 39%
    17:00 +17°C° 0 mm 2 m/s 746 mmHg 40%
    18:00 +16°C° 0 mm 1 m/s 746 mmHg 44%
    19:00 +14°C° 0 mm 1 m/s 746 mmHg 49%
    20:00 +12°C° 0 mm 1 m/s 746 mmHg 54%
    21:00 +12°C° 0 mm 1 m/s 746 mmHg 54%
    22:00 +11°C° 0 mm 1 m/s 746 mmHg 55%
    23:00 +10°C° 0 mm 1 m/s 746 mmHg 55%

    25 Mars, Lundi

    Heure Température Précipitation Vent Pression Humidité
    00:00 +10°C° 0 mm 1 m/s 746 mmHg 55%
    01:00 +10°C° 0 mm 1 m/s 746 mmHg 56%
    02:00 +9°C° 0 mm 1 m/s 746 mmHg 56%
    03:00 +9°C° 0 mm 1 m/s 746 mmHg 55%
    04:00 +9°C° 0 mm 1 m/s 745 mmHg 55%
    05:00 +9°C° 0 mm 1 m/s 745 mmHg 54%
    06:00 +10°C° 0 mm 1 m/s 745 mmHg 52%
    07:00 +11°C° 0 mm 1 m/s 745 mmHg 49%
    08:00 +12°C° 0 mm 1 m/s 745 mmHg 47%
    09:00 +14°C° 0 mm 1 m/s 745 mmHg 43%
    10:00 +16°C° 0 mm 2 m/s 744 mmHg 39%
    11:00 +18°C° 0 mm 2 m/s 744 mmHg 35%
    12:00 +19°C° 0 mm 3 m/s 743 mmHg 34%
    13:00 +20°C° 0 mm 3 m/s 743 mmHg 33%
    14:00 +21°C° 0 mm 3 m/s 742 mmHg 32%
    15:00 +20°C° 0 mm 3 m/s 742 mmHg 35%
    16:00 +20°C° 0 mm 3 m/s 741 mmHg 37%
    17:00 +20°C° 0 mm 3 m/s 741 mmHg 39%
    18:00 +18°C° 0 mm 3 m/s 741 mmHg 45%
    19:00 +16°C° 0 mm 3 m/s 741 mmHg 51%
    20:00 +14°C° 0 mm 2 m/s 741 mmHg 57%
    21:00 +13°C° 0 mm 2 m/s 741 mmHg 60%
    22:00 +13°C° 0 mm 2 m/s 741 mmHg 62%
    23:00 +12°C° 0 mm 2 m/s 741 mmHg 65%

    26 Mars, Mardi

    Heure Température Précipitation Vent Pression Humidité
    00:00 +12°C° 0 mm 2 m/s 741 mmHg 68%
    01:00 +10°C° 0 mm 2 m/s 741 mmHg 70%
    02:00 +10°C° 0 mm 2 m/s 741 mmHg 73%
    03:00 +10°C° 0 mm 2 m/s 741 mmHg 73%
    04:00 +10°C° 0 mm 2 m/s 741 mmHg 74%
    05:00 +9°C° 0 mm 2 m/s 741 mmHg 74%
    06:00 +10°C° 0.1 mm 3 m/s 741 mmHg 70%
    07:00 +10°C° 0.1 mm 3 m/s 742 mmHg 66%
    08:00 +10°C° 0.1 mm 4 m/s 742 mmHg 62%
    09:00 +10°C° 0.1 mm 4 m/s 742 mmHg 60%
    10:00 +10°C° 0.1 mm 4 m/s 742 mmHg 57%
    11:00 +11°C° 0.1 mm 4 m/s 743 mmHg 54%
    12:00 +11°C° 0.1 mm 4 m/s 743 mmHg 52%
    13:00 +12°C° 0.1 mm 3 m/s 742 mmHg 50%
    14:00 +13°C° 0.1 mm 3 m/s 742 mmHg 47%
    15:00 +12°C° 0.1 mm 3 m/s 742 mmHg 47%
    16:00 +11°C° 0.1 mm 3 m/s 742 mmHg 48%
    17:00 +11°C° 0.1 mm 3 m/s 742 mmHg 48%
    18:00 +10°C° 0.1 mm 3 m/s 743 mmHg 49%
    19:00 +9°C° 0.1 mm 2 m/s 743 mmHg 51%
    20:00 +8°C° 0.1 mm 2 m/s 744 mmHg 53%
    21:00 +7°C° 0.2 mm 2 m/s 744 mmHg 57%
    22:00 +7°C° 0.2 mm 2 m/s 745 mmHg 60%
    23:00 +6°C° 0.2 mm 2 m/s 745 mmHg 64%

    27 Mars, Mercredi

    Heure Température Précipitation Vent Pression Humidité
    00:00 +6°C° 0.6 mm 2 m/s 745 mmHg 70%
    01:00 +6°C° 0.6 mm 2 m/s 746 mmHg 75%
    02:00 +6°C° 0.6 mm 1 m/s 746 mmHg 81%
    03:00 +5°C° 0.3 mm 2 m/s 746 mmHg 83%
    04:00 +5°C° 0.3 mm 2 m/s 746 mmHg 85%
    05:00 +5°C° 0.3 mm 2 m/s 746 mmHg 86%
    06:00 +5°C° 0.1 mm 2 m/s 747 mmHg 84%
    07:00 +5°C° 0.1 mm 2 m/s 747 mmHg 82%
    08:00 +5°C° 0.1 mm 2 m/s 748 mmHg 80%
    09:00 +6°C° 0.1 mm 2 m/s 748 mmHg 75%
    10:00 +7°C° 0.1 mm 2 m/s 748 mmHg 71%
    11:00 +8°C° 0.1 mm 2 m/s 749 mmHg 67%
    12:00 +8°C° 0.1 mm 2 m/s 748 mmHg 65%
    13:00 +9°C° 0.1 mm 2 m/s 748 mmHg 64%
    14:00 +9°C° 0.1 mm 2 m/s 748 mmHg 62%
    15:00 +9°C° 0.1 mm 2 m/s 748 mmHg 63%
    16:00 +9°C° 0.1 mm 2 m/s 748 mmHg 63%
    17:00 +9°C° 0.1 mm 2 m/s 748 mmHg 63%
    18:00 +8°C° 0 mm 2 m/s 749 mmHg 67%
    19:00 +7°C° 0 mm 2 m/s 749 mmHg 71%
    20:00 +6°C° 0 mm 2 m/s 750 mmHg 75%
    21:00 +5°C° 0 mm 2 m/s 750 mmHg 77%
    22:00 +5°C° 0 mm 2 m/s 750 mmHg 80%
    23:00 +4°C° 0 mm 2 m/s 750 mmHg 82%
    Voir plus